(520037) = 2013 VP28

Discovered at Haleakala on 2013-11-06 by Pan-STARRS 1.

Orbit

Orbit type: Main Belt

Note: WebGL enabled browser required.

epoch2023-02-25.0
epoch JD2460000.5
perihelion date2022-02-18.68788
perihelion JD2459629.18788
argument of perihelion (°)221.55523
ascending node (°)183.26429
inclination (°)9.35712
eccentricity0.1254344
perihelion distance (AU)2.2788369
Tisserand w.r.t. Jupiter3.4
ΔV w.r.t. Earth (km/sec)9.9
semimajor axis (AU)2.6056787
mean anomaly (°)87.00850
mean daily motion (°/day)0.23432710
aphelion distance (AU)2.933
period (years)4.21
P-vector [x]0.70983317
P-vector [y]0.68152690
P-vector [z]0.17792682
Q-vector [x]-0.70430899
Q-vector [y]0.69007389
Q-vector [z]0.16657393
absolute magnitude17.43
phase slope0.15
uncertainty0
referenceMPEC 2023-F72
observations used173
oppositions9
arc length (days)6780
first opposition used2004
last opposition used2023
residual rms (arc-secs)0.62
perturbers coarse indicatorM-v
perturbers precise indicator003Ek
first observation date used2004-08-25.0
last observation date used2023-03-19.0
computer nameMPCLINUX
Minimum Orbit Intersection Distances (in AU)
for orbit epoch: 2460000.5, reference: E2023-F72
Mercury1.95824
Venus1.55823
Earth1.29422
Mars0.83384
Jupiter2.49766
Saturn6.65678
Uranus15.6357
Neptune27.5317

Observations

178 total observations over interval: 2004 08 25.30768 – 2023 03 19.260704
These data are available for download (format description).

Date (UT) J2000 RA J2000 Dec Magn Location Ref
2004 08 25.30768 22 24 59.62 -01 46 08.9 20.5 V 691 – Steward Observatory, Kitt Peak-Spacewatch MPS 885355
2004 08 25.33509 22 24 58.29 -01 46 22.7 20.4 V 691 – Steward Observatory, Kitt Peak-Spacewatch MPS 885355
2004 08 25.36222 22 24 56.98 -01 46 36.1 20.4 V 691 – Steward Observatory, Kitt Peak-Spacewatch MPS 885355
2011 05 08.20789 13 07 11.17 -01 23 10.5 21.7 V G96 – Mt. Lemmon Survey MPS 885355
2011 05 08.21666 13 07 10.88 -01 23 07.9 22.1 V G96 – Mt. Lemmon Survey MPS 885355
2011 05 08.22541 13 07 10.59 -01 23 05.4 21.0 V G96 – Mt. Lemmon Survey MPS 885355
2011 05 08.23414 13 07 10.27 -01 23 02.8 21.1 V G96 – Mt. Lemmon Survey MPS 885355
2013 11 06.42134 04 36 19.288 +08 59 10.09 20.5 w F51 – Pan-STARRS 1, Haleakala MPS 885355
2013 11 06.44875 04 36 18.178 +08 58 58.70 20.4 w F51 – Pan-STARRS 1, Haleakala MPS 885355
2013 11 06.46256 04 36 17.613 +08 58 52.80 20.4 w F51 – Pan-STARRS 1, Haleakala MPS 885355
2013 11 28.41824 04 18 16.243 +06 49 25.76 20.1 w F51 – Pan-STARRS 1, Haleakala MPS 885355
2013 11 28.43126 04 18 15.497 +06 49 22.45 20.0 w F51 – Pan-STARRS 1, Haleakala MPS 885355
2013 11 28.44429 04 18 14.747 +06 49 18.99 20.0 w F51 – Pan-STARRS 1, Haleakala MPS 885355
2014 01 21.24058 03 56 54.940 +07 40 19.54 21.8 w F51 – Pan-STARRS 1, Haleakala MPS 885355
2014 01 21.25345 03 56 55.191 +07 40 23.56 21.7 w F51 – Pan-STARRS 1, Haleakala MPS 885355
2014 01 21.26640 03 56 55.433 +07 40 27.66 21.7 w F51 – Pan-STARRS 1, Haleakala MPS 885355
2014 01 21.27943 03 56 55.665 +07 40 31.63 21.7 w F51 – Pan-STARRS 1, Haleakala MPS 885355
2015 02 16.50309 12 37 14.904 -05 40 53.25 21.8 w F51 – Pan-STARRS 1, Haleakala MPS 885355
2015 02 16.51579 12 37 14.668 -05 40 49.99 21.8 w F51 – Pan-STARRS 1, Haleakala MPS 885355
2015 02 27.54302 12 32 38.838 -04 42 01.87 21.5 w F51 – Pan-STARRS 1, Haleakala MPS 885355
2015 02 27.55557 12 32 38.443 -04 41 57.43 21.5 w F51 – Pan-STARRS 1, Haleakala MPS 885355
2015 02 27.56810 12 32 38.007 -04 41 52.63 21.4 w F51 – Pan-STARRS 1, Haleakala MPS 885355
2015 02 27.58062 12 32 37.591 -04 41 48.00 21.3 w F51 – Pan-STARRS 1, Haleakala MPS 885355
2015 03 21.33300 12 17 30.98 -01 57 26.0 21.1 V G96 – Mt. Lemmon Survey MPS 885355
2015 03 21.33808 12 17 30.67 -01 57 23.4 21.4 V G96 – Mt. Lemmon Survey MPS 885355
2015 03 21.34317 12 17 30.47 -01 57 20.7 21.4 V G96 – Mt. Lemmon Survey MPS 885355
2015 03 21.34826 12 17 30.23 -01 57 18.3 21.1 V G96 – Mt. Lemmon Survey MPS 885355
2017 08 03.57060 02 04 15.680 +11 46 01.85 21.6 w F51 – Pan-STARRS 1, Haleakala MPS 885355
2017 08 03.58091 02 04 16.283 +11 46 02.91 21.7 w F51 – Pan-STARRS 1, Haleakala MPS 885355
2017 08 03.59127 02 04 16.901 +11 46 03.80 21.6 w F51 – Pan-STARRS 1, Haleakala MPS 885355
2017 08 03.60163 02 04 17.540 +11 46 04.78 21.6 w F51 – Pan-STARRS 1, Haleakala MPS 885355
2017 09 23.43579 02 28 05.833 +09 24 09.41 20.9 w F51 – Pan-STARRS 1, Haleakala MPS 888671
2017 09 23.44672 02 28 05.672 +09 24 04.63 21.0 w F51 – Pan-STARRS 1, Haleakala MPS 888671
2017 09 23.45767 02 28 05.515 +09 23 59.84 20.9 w F51 – Pan-STARRS 1, Haleakala MPS 888671
2017 09 23.46873 02 28 05.344 +09 23 54.90 21.1 w F51 – Pan-STARRS 1, Haleakala MPS 888671
2017 09 26.30900 02 27 22.42 +09 02 17.7 20.8 V G96 – Mt. Lemmon Survey MPS 888671
2017 09 26.31462 02 27 22.33 +09 02 14.9 21.1 V G96 – Mt. Lemmon Survey MPS 888671
2017 09 26.32026 02 27 22.24 +09 02 11.8 20.8 V G96 – Mt. Lemmon Survey MPS 888671
2017 09 26.32593 02 27 22.12 +09 02 09.4 21.1 V G96 – Mt. Lemmon Survey MPS 888671
2017 09 27.59772 02 26 58.169 +08 52 06.15 20.4 w F51 – Pan-STARRS 1, Haleakala MPS 888671
2017 09 27.60782 02 26 57.945 +08 52 01.32 20.4 w F51 – Pan-STARRS 1, Haleakala MPS 888671
2017 09 27.61799 02 26 57.728 +08 51 56.37 20.4 w F51 – Pan-STARRS 1, Haleakala MPS 888671
2017 09 27.62815 02 26 57.508 +08 51 51.40 20.6 w F51 – Pan-STARRS 1, Haleakala MPS 888671
2017 10 16.27590 02 16 45.38 +06 04 16.4 20.9 G 703 – Catalina Sky Survey MPS 885355
2017 10 16.28796 02 16 44.71 +06 04 09.8 19.4 G 703 – Catalina Sky Survey MPS 885355
2017 10 16.29459 02 16 44.45 +06 04 04.5 20.3 G 703 – Catalina Sky Survey MPS 885355
2017 10 16.31888 02 16 43.31 +06 03 50.7 20.3 G G96 – Mt. Lemmon Survey MPS 888671
2017 10 16.32408 02 16 43.06 +06 03 47.4 20.3 G G96 – Mt. Lemmon Survey MPS 888671
2017 10 16.32929 02 16 42.84 +06 03 44.2 20.1 G G96 – Mt. Lemmon Survey MPS 888671
2017 10 16.33450 02 16 42.59 +06 03 41.4 20.1 G G96 – Mt. Lemmon Survey MPS 888671
2017 10 18.47427 02 15 07.701 +05 43 22.11 20.2 w F51 – Pan-STARRS 1, Haleakala MPS 888671
2017 10 18.48792 02 15 07.027 +05 43 14.24 20.4 w F51 – Pan-STARRS 1, Haleakala MPS 888671
2017 10 18.50144 02 15 06.388 +05 43 06.58 20.3 w F51 – Pan-STARRS 1, Haleakala MPS 888671
2017 10 18.51495 02 15 05.747 +05 42 58.94 20.3 w F51 – Pan-STARRS 1, Haleakala MPS 888671
2017 10 24.28291 02 10 37.98 +04 48 54.8 20.1 G 703 – Catalina Sky Survey MPS 888671
2017 10 24.28844 02 10 37.64 +04 48 52.3 20.1 G 703 – Catalina Sky Survey MPS 888671
2017 10 24.29401 02 10 37.37 +04 48 50.0 19.6 G 703 – Catalina Sky Survey MPS 888671
2017 10 24.29958 02 10 37.06 +04 48 47.1 20.3 G 703 – Catalina Sky Survey MPS 888671
2017 10 24.30159 02 10 37.03 +04 48 45.1 19.8 G G96 – Mt. Lemmon Survey MPS 888671
2017 10 24.30677 02 10 36.76 +04 48 42.3 20.0 G G96 – Mt. Lemmon Survey MPS 888671
2017 10 24.31195 02 10 36.51 +04 48 39.5 19.9 G G96 – Mt. Lemmon Survey MPS 888671
2017 10 24.31713 02 10 36.25 +04 48 36.6 19.9 G G96 – Mt. Lemmon Survey MPS 888671
2017 10 28.45307 02 07 19.403 +04 11 28.99 20.0 w F51 – Pan-STARRS 1, Haleakala MPS 888671
2017 10 28.46574 02 07 18.764 +04 11 22.33 20.0 w F51 – Pan-STARRS 1, Haleakala MPS 888671
2017 10 28.47838 02 07 18.135 +04 11 15.65 20.0 w F51 – Pan-STARRS 1, Haleakala MPS 888671
2017 10 28.49105 02 07 17.501 +04 11 09.02 20.0 w F51 – Pan-STARRS 1, Haleakala MPS 888671
2017 11 17.24204 01 53 35.63 +01 52 53.8 20.9 G G96 – Mt. Lemmon Survey MPS 888671
2017 11 17.24723 01 53 35.46 +01 52 52.5 21.0 G G96 – Mt. Lemmon Survey MPS 888671
2017 11 17.25243 01 53 35.26 +01 52 51.3 20.5 G G96 – Mt. Lemmon Survey MPS 888671
2017 11 17.25768 01 53 35.10 +01 52 49.6 20.7 G G96 – Mt. Lemmon Survey MPS 888671
2017 11 20.30632 01 52 05.090 +01 39 16.61 20.8 w F51 – Pan-STARRS 1, Haleakala MPS 888671
2017 11 20.31821 01 52 04.728 +01 39 13.67 20.8 w F51 – Pan-STARRS 1, Haleakala MPS 888671
2017 11 20.33006 01 52 04.391 +01 39 10.74 20.9 w F51 – Pan-STARRS 1, Haleakala MPS 888671
2017 11 20.34190 01 52 04.029 +01 39 07.90 20.8 w F51 – Pan-STARRS 1, Haleakala MPS 888671
2017 11 24.21981 01 50 29.51 +01 25 19.5 20.6 G G96 – Mt. Lemmon Survey MPS 888671
2017 11 24.22811 01 50 29.31 +01 25 17.5 20.7 G G96 – Mt. Lemmon Survey MPS 888671
2017 11 24.23331 01 50 29.18 +01 25 16.8 20.5 G G96 – Mt. Lemmon Survey MPS 888671
2017 11 24.23853 01 50 29.07 +01 25 15.9 20.6 G G96 – Mt. Lemmon Survey MPS 888671
2017 12 20.13423 01 50 36.58 +01 27 35.2 21.2 G G96 – Mt. Lemmon Survey MPS 885355
2017 12 20.13988 01 50 36.69 +01 27 36.1 21.2 G G96 – Mt. Lemmon Survey MPS 885355
2017 12 20.14553 01 50 36.80 +01 27 37.3 21.1 G G96 – Mt. Lemmon Survey MPS 885355
2017 12 20.15118 01 50 36.93 +01 27 38.2 20.8 G G96 – Mt. Lemmon Survey MPS 885355
2019 03 04.28437 10 59 49.73 +01 18 11.5 21.3 V 691 – Steward Observatory, Kitt Peak-Spacewatch MPS 977958
2019 03 04.29123 10 59 49.38 +01 18 15.2 20.9 V 691 – Steward Observatory, Kitt Peak-Spacewatch MPS 977958
2019 03 04.29808 10 59 49.00 +01 18 19.1 20.4 V 691 – Steward Observatory, Kitt Peak-Spacewatch MPS 977958
2019 03 05.34420 10 58 57.47 +01 27 05.4 21.5 V 691 – Steward Observatory, Kitt Peak-Spacewatch MPS 977958
2019 03 05.35254 10 58 57.07 +01 27 09.1 21.2 V 691 – Steward Observatory, Kitt Peak-Spacewatch MPS 977958
2019 03 05.35810 10 58 56.80 +01 27 11.9 21.7 V 691 – Steward Observatory, Kitt Peak-Spacewatch MPS 977958
2019 04 04.34784 10 38 51.198 +05 23 10.29 21.3 w F51 – Pan-STARRS 1, Haleakala MPS 990577
2019 04 04.35182 10 38 51.109 +05 23 11.77 21.5 w F51 – Pan-STARRS 1, Haleakala MPS 990577
2019 04 04.35929 10 38 50.898 +05 23 14.67 21.3 w F51 – Pan-STARRS 1, Haleakala MPS 990577
2019 04 04.36323 10 38 50.798 +05 23 16.38 21.4 w F51 – Pan-STARRS 1, Haleakala MPS 990577
2019 04 04.37071 10 38 50.586 +05 23 19.14 21.4 w F51 – Pan-STARRS 1, Haleakala MPS 990577
2019 04 04.37467 10 38 50.491 +05 23 20.67 21.6 w F51 – Pan-STARRS 1, Haleakala MPS 990577
2019 04 04.38216 10 38 50.284 +05 23 23.33 21.5 w F51 – Pan-STARRS 1, Haleakala MPS 990577
